TRANSAT

Last updated on Fri Jun 19 2026 20:04:44 GMT+0000 (Coordinated Universal Time)

1 10457U 77106A 26170.51100131 .00000070 00000+0 95180-4 0 9999 2 10457 89.6485 71.8455 0026123 13.4953 160.0633 13.48971920392881
UTC large
Height (km)
Speed (km/s)
/
Latitude / Longitude
Inclination (degrees)
Orbital Period (minutes)
Azimuth
Elevation
Range (km)
Doppler Factor

Next 0 passes for location: London (51.5072 / 0.1276)

Sorry there are no passes over London.
TRANSAT